• In Portugal
  • List of Countries
  • For 7 days
  • Water Temperature
  • Satellite Maps
  • Weather Map
  • Weather Widgets
  • user-avatar
    Login

    Hourly Weather Misrata

    Today, 24 September, Monday

    Time Temperature Precipitation Wind Pressure Humidity
    00:00 +29°C° 0 mm 3 mps 762 mmHg 69%
    01:00 +29°C° 0 mm 3 mps 762 mmHg 71%
    02:00 +28°C° 0 mm 3 mps 762 mmHg 72%
    03:00 +28°C° 0 mm 2 mps 761 mmHg 74%
    04:00 +28°C° 0 mm 2 mps 761 mmHg 75%
    05:00 +28°C° 0 mm 2 mps 761 mmHg 74%
    06:00 +28°C° 0 mm 2 mps 761 mmHg 72%
    07:00 +28°C° 0 mm 2 mps 761 mmHg 71%
    08:00 +29°C° 0 mm 2 mps 761 mmHg 62%
    09:00 +31°C° 0 mm 3 mps 761 mmHg 53%
    10:00 +33°C° 0 mm 3 mps 761 mmHg 44%
    11:00 +35°C° 0 mm 3 mps 761 mmHg 40%
    12:00 +36°C° 0 mm 3 mps 760 mmHg 35%
    13:00 +37°C° 0 mm 2 mps 760 mmHg 31%
    14:00 +37°C° 0 mm 4 mps 759 mmHg 32%
    15:00 +37°C° 0 mm 5 mps 759 mmHg 33%
    16:00 +38°C° 0 mm 6 mps 759 mmHg 34%
    17:00 +35°C° 0 mm 6 mps 759 mmHg 42%
    18:00 +34°C° 0 mm 6 mps 759 mmHg 49%
    19:00 +32°C° 0 mm 6 mps 760 mmHg 57%
    20:00 +30°C° 0 mm 6 mps 760 mmHg 59%
    21:00 +30°C° 0 mm 6 mps 760 mmHg 61%
    22:00 +29°C° 0 mm 6 mps 761 mmHg 63%
    23:00 +29°C° 0 mm 6 mps 761 mmHg 66%

    Tomorrow, 25 September, Tuesday

    Time Temperature Precipitation Wind Pressure Humidity
    00:00 +29°C° 0 mm 6 mps 761 mmHg 69%
    01:00 +28°C° 0 mm 6 mps 760 mmHg 73%
    02:00 +28°C° 0.1 mm 6 mps 760 mmHg 74%
    03:00 +28°C° 0.1 mm 5 mps 760 mmHg 75%
    04:00 +27°C° 0.1 mm 5 mps 760 mmHg 77%
    05:00 +28°C° 0 mm 5 mps 760 mmHg 75%
    06:00 +28°C° 0 mm 5 mps 760 mmHg 73%
    07:00 +28°C° 0 mm 6 mps 760 mmHg 72%
    08:00 +29°C° 0 mm 5 mps 760 mmHg 65%
    09:00 +30°C° 0 mm 5 mps 761 mmHg 59%
    10:00 +33°C° 0 mm 5 mps 761 mmHg 52%
    11:00 +33°C° 0.1 mm 5 mps 761 mmHg 49%
    12:00 +34°C° 0.1 mm 5 mps 760 mmHg 47%
    13:00 +35°C° 0.1 mm 5 mps 760 mmHg 44%
    14:00 +34°C° 0.1 mm 5 mps 760 mmHg 45%
    15:00 +34°C° 0.1 mm 5 mps 759 mmHg 46%
    16:00 +34°C° 0.1 mm 6 mps 759 mmHg 47%
    17:00 +33°C° 0.2 mm 5 mps 759 mmHg 51%
    18:00 +32°C° 0.2 mm 5 mps 760 mmHg 55%
    19:00 +30°C° 0.2 mm 4 mps 760 mmHg 60%
    20:00 +30°C° 0.1 mm 4 mps 760 mmHg 63%
    21:00 +29°C° 0.1 mm 4 mps 760 mmHg 65%
    22:00 +29°C° 0.1 mm 3 mps 761 mmHg 68%
    23:00 +29°C° 0 mm 3 mps 760 mmHg 69%

    Day after tomorrow, 26 September, Wednesday

    Time Temperature Precipitation Wind Pressure Humidity
    00:00 +28°C° 0 mm 3 mps 760 mmHg 70%
    01:00 +28°C° 0 mm 2 mps 760 mmHg 71%
    02:00 +28°C° 0.2 mm 3 mps 760 mmHg 72%
    03:00 +28°C° 0.2 mm 3 mps 760 mmHg 72%
    04:00 +27°C° 0.2 mm 3 mps 759 mmHg 72%
    05:00 +28°C° 0.1 mm 3 mps 760 mmHg 71%
    06:00 +28°C° 0.1 mm 3 mps 760 mmHg 69%
    07:00 +28°C° 0.1 mm 3 mps 760 mmHg 67%
    08:00 +29°C° 0.1 mm 4 mps 760 mmHg 62%
    09:00 +30°C° 0.1 mm 4 mps 760 mmHg 56%
    10:00 +32°C° 0.1 mm 4 mps 761 mmHg 50%
    11:00 +32°C° 0.3 mm 5 mps 760 mmHg 48%
    12:00 +33°C° 0.3 mm 5 mps 760 mmHg 46%
    13:00 +33°C° 0.3 mm 5 mps 760 mmHg 45%
    14:00 +33°C° 0.3 mm 5 mps 760 mmHg 46%
    15:00 +33°C° 0.3 mm 6 mps 760 mmHg 48%
    16:00 +32°C° 0.3 mm 6 mps 759 mmHg 49%
    17:00 +30°C° 0.3 mm 6 mps 760 mmHg 53%
    18:00 +30°C° 0.3 mm 7 mps 760 mmHg 57%
    19:00 +29°C° 0.3 mm 7 mps 761 mmHg 60%
    20:00 +28°C° 0.7 mm 7 mps 761 mmHg 61%
    21:00 +28°C° 0.7 mm 7 mps 762 mmHg 62%
    22:00 +28°C° 0.7 mm 6 mps 762 mmHg 64%
    23:00 +27°C° 0.8 mm 6 mps 762 mmHg 66%

    27 September, Thursday

    Time Temperature Precipitation Wind Pressure Humidity
    00:00 +27°C° 0.8 mm 6 mps 762 mmHg 68%
    01:00 +26°C° 0.8 mm 6 mps 762 mmHg 70%
    02:00 +26°C° 0.4 mm 6 mps 762 mmHg 71%
    03:00 +26°C° 0.4 mm 6 mps 762 mmHg 72%
    04:00 +26°C° 0.4 mm 6 mps 761 mmHg 73%
    05:00 +26°C° 0.3 mm 6 mps 762 mmHg 72%
    06:00 +26°C° 0.3 mm 6 mps 762 mmHg 71%
    07:00 +26°C° 0.3 mm 7 mps 762 mmHg 70%
    08:00 +27°C° 0.3 mm 7 mps 762 mmHg 66%
    09:00 +27°C° 0.3 mm 7 mps 762 mmHg 62%
    10:00 +28°C° 0.3 mm 7 mps 763 mmHg 57%
    11:00 +28°C° 0.2 mm 8 mps 763 mmHg 55%
    12:00 +28°C° 0.2 mm 8 mps 762 mmHg 53%
    13:00 +29°C° 0.2 mm 9 mps 762 mmHg 51%
    14:00 +28°C° 0 mm 9 mps 762 mmHg 50%
    15:00 +28°C° 0 mm 9 mps 762 mmHg 49%
    16:00 +27°C° 0 mm 9 mps 762 mmHg 49%
    17:00 +27°C° 0 mm 9 mps 762 mmHg 47%
    18:00 +26°C° 0 mm 8 mps 762 mmHg 46%
    19:00 +26°C° 0 mm 8 mps 763 mmHg 44%
    20:00 +24°C° 0 mm 7 mps 763 mmHg 45%
    21:00 +24°C° 0 mm 6 mps 763 mmHg 45%
    22:00 +25°C° 0 mm 5 mps 763 mmHg 46%
    23:00 +25°C° 0 mm 5 mps 762 mmHg 46%

    28 September, Friday

    Time Temperature Precipitation Wind Pressure Humidity
    00:00 +23°C° 0 mm 5 mps 762 mmHg 47%
    01:00 +23°C° 0 mm 5 mps 762 mmHg 48%
    02:00 +23°C° 0 mm 5 mps 761 mmHg 48%
    03:00 +23°C° 0 mm 5 mps 761 mmHg 49%
    04:00 +23°C° 0 mm 5 mps 761 mmHg 49%
    05:00 +23°C° 0 mm 4 mps 761 mmHg 48%
    06:00 +23°C° 0 mm 4 mps 761 mmHg 47%
    07:00 +23°C° 0 mm 4 mps 761 mmHg 46%
    08:00 +25°C° 0.5 mm 4 mps 761 mmHg 44%
    09:00 +26°C° 0.5 mm 4 mps 761 mmHg 42%
    10:00 +27°C° 0.5 mm 5 mps 761 mmHg 40%
    11:00 +27°C° 0.5 mm 4 mps 761 mmHg 40%
    12:00 +27°C° 0.5 mm 4 mps 761 mmHg 41%
    13:00 +27°C° 0.5 mm 4 mps 760 mmHg 42%
    14:00 +27°C° 0.1 mm 4 mps 760 mmHg 40%
    15:00 +28°C° 0.1 mm 4 mps 760 mmHg 39%
    16:00 +28°C° 0.1 mm 4 mps 759 mmHg 37%
    17:00 +28°C° 0 mm 3 mps 759 mmHg 40%
    18:00 +27°C° 0 mm 3 mps 760 mmHg 42%
    19:00 +26°C° 0 mm 3 mps 760 mmHg 45%
    20:00 +26°C° 0.3 mm 3 mps 760 mmHg 48%
    21:00 +26°C° 0.3 mm 2 mps 760 mmHg 51%
    22:00 +25°C° 0.3 mm 2 mps 760 mmHg 55%
    23:00 +25°C° 0.1 mm 3 mps 760 mmHg 55%

    29 September, Saturday

    Time Temperature Precipitation Wind Pressure Humidity
    00:00 +25°C° 0.1 mm 3 mps 760 mmHg 56%
    01:00 +23°C° 0.1 mm 4 mps 759 mmHg 57%
    02:00 +23°C° 0 mm 4 mps 759 mmHg 57%
    03:00 +23°C° 0 mm 4 mps 759 mmHg 58%
    04:00 +23°C° 0 mm 4 mps 759 mmHg 58%
    05:00 +23°C° 0 mm 4 mps 759 mmHg 57%
    06:00 +23°C° 0 mm 4 mps 760 mmHg 57%
    07:00 +23°C° 0 mm 5 mps 760 mmHg 56%
    08:00 +25°C° 0 mm 5 mps 760 mmHg 52%
    09:00 +27°C° 0 mm 5 mps 760 mmHg 48%
    10:00 +28°C° 0 mm 5 mps 760 mmHg 44%
    11:00 +29°C° 0 mm 5 mps 760 mmHg 41%
    12:00 +30°C° 0 mm 6 mps 760 mmHg 38%
    13:00 +32°C° 0 mm 6 mps 759 mmHg 35%
    14:00 +30°C° 0 mm 6 mps 759 mmHg 36%
    15:00 +30°C° 0 mm 7 mps 759 mmHg 38%
    16:00 +30°C° 0 mm 7 mps 759 mmHg 39%
    17:00 +29°C° 0 mm 6 mps 759 mmHg 43%
    18:00 +29°C° 0 mm 5 mps 760 mmHg 46%
    19:00 +28°C° 0 mm 4 mps 760 mmHg 49%
    20:00 +28°C° 0 mm 3 mps 760 mmHg 51%
    21:00 +27°C° 0 mm 3 mps 761 mmHg 53%
    22:00 +27°C° 0 mm 2 mps 761 mmHg 55%
    23:00 +27°C° 0 mm 2 mps 761 mmHg 56%
    Show more

    3.3.7123123